Year,Month,Day,Hour,Minute,Value (Times are PST for temperature in C)
2015,10,15,00,00,11.20
2015,10,15,00,01,11.20
2015,10,15,00,02,11.20
2015,10,15,00,03,11.20
2015,10,15,00,04,11.30
2015,10,15,00,05,11.30
2015,10,15,00,06,11.30
2015,10,15,00,07,11.30
2015,10,15,00,08,11.30
2015,10,15,00,09,11.40
2015,10,15,00,10,11.40
2015,10,15,00,11,11.40
2015,10,15,00,12,11.50
2015,10,15,00,13,11.60
2015,10,15,00,14,11.60
2015,10,15,00,15,11.70
2015,10,15,00,16,11.80
2015,10,15,00,17,11.80
2015,10,15,00,18,11.90
2015,10,15,00,19,12.00
2015,10,15,00,20,12.00
2015,10,15,00,21,12.10
2015,10,15,00,22,12.10
2015,10,15,00,23,12.10
2015,10,15,00,24,12.10
2015,10,15,00,25,12.00
2015,10,15,00,26,12.00
2015,10,15,00,27,12.00
2015,10,15,00,28,11.90
2015,10,15,00,29,11.80
2015,10,15,00,30,11.70
2015,10,15,00,31,11.70
2015,10,15,00,32,11.60
2015,10,15,00,33,11.50
2015,10,15,00,34,11.40
2015,10,15,00,35,11.40
2015,10,15,00,36,11.30
2015,10,15,00,37,11.20
2015,10,15,00,38,11.20
2015,10,15,00,39,11.10
2015,10,15,00,40,11.00
2015,10,15,00,41,11.00
2015,10,15,00,42,10.90
2015,10,15,00,43,10.90
2015,10,15,00,44,10.80
2015,10,15,00,45,10.80
2015,10,15,00,46,10.70
2015,10,15,00,47,10.70
2015,10,15,00,48,10.60
2015,10,15,00,49,10.50
2015,10,15,00,50,10.50
2015,10,15,00,51,10.40
2015,10,15,00,52,10.40
2015,10,15,00,53,10.30
2015,10,15,00,54,10.30
2015,10,15,00,55,10.30
2015,10,15,00,56,10.20
2015,10,15,00,57,10.20
2015,10,15,00,58,10.20
2015,10,15,00,59,10.20
2015,10,15,01,00,10.20
2015,10,15,01,01,10.20
2015,10,15,01,02,10.20
2015,10,15,01,03,10.20
2015,10,15,01,04,10.20
2015,10,15,01,05,10.20
2015,10,15,01,06,10.20
2015,10,15,01,07,10.10
2015,10,15,01,08,10.10
2015,10,15,01,09,10.10
2015,10,15,01,10,10.10
2015,10,15,01,11,10.10
2015,10,15,01,12,10.10
2015,10,15,01,13,10.10
2015,10,15,01,14,10.10
2015,10,15,01,15,10.00
2015,10,15,01,16,10.00
2015,10,15,01,17,10.00
2015,10,15,01,18,9.90
2015,10,15,01,19,9.90
2015,10,15,01,20,9.90
2015,10,15,01,21,9.90
2015,10,15,01,22,9.80
2015,10,15,01,23,9.80
2015,10,15,01,24,9.80
2015,10,15,01,25,9.80
2015,10,15,01,26,9.80
2015,10,15,01,27,9.80
2015,10,15,01,28,9.70
2015,10,15,01,29,9.70
2015,10,15,01,30,9.70
2015,10,15,01,31,9.70
2015,10,15,01,32,9.70
2015,10,15,01,33,9.70
2015,10,15,01,34,9.70
2015,10,15,01,35,9.70
2015,10,15,01,36,9.70
2015,10,15,01,37,9.70
2015,10,15,01,38,9.60
2015,10,15,01,39,9.60
2015,10,15,01,40,9.60
2015,10,15,01,41,9.60
2015,10,15,01,42,9.60
2015,10,15,01,43,9.60
2015,10,15,01,44,9.60
2015,10,15,01,45,9.50
2015,10,15,01,46,9.50
2015,10,15,01,47,9.50
2015,10,15,01,48,9.40
2015,10,15,01,49,9.40
2015,10,15,01,50,9.40
2015,10,15,01,51,9.40
2015,10,15,01,52,9.40
2015,10,15,01,53,9.40
2015,10,15,01,54,9.40
2015,10,15,01,55,9.40
2015,10,15,01,56,9.40
2015,10,15,01,57,9.40
2015,10,15,01,58,9.40
2015,10,15,01,59,9.40
2015,10,15,02,00,9.40
2015,10,15,02,01,9.40
2015,10,15,02,02,9.40
2015,10,15,02,03,9.40
2015,10,15,02,04,9.40
2015,10,15,02,05,9.40
2015,10,15,02,06,9.40
2015,10,15,02,07,9.40
2015,10,15,02,08,9.40
2015,10,15,02,09,9.40
2015,10,15,02,10,9.40
2015,10,15,02,11,9.40
2015,10,15,02,12,9.40
2015,10,15,02,13,9.40
2015,10,15,02,14,9.40
2015,10,15,02,15,9.40
2015,10,15,02,16,9.40
2015,10,15,02,17,9.40
2015,10,15,02,18,9.40
2015,10,15,02,19,9.40
2015,10,15,02,20,9.40
2015,10,15,02,21,9.40
2015,10,15,02,22,9.40
2015,10,15,02,23,9.40
2015,10,15,02,24,9.40
2015,10,15,02,25,9.40
2015,10,15,02,26,9.40
2015,10,15,02,27,9.30
2015,10,15,02,28,9.30
2015,10,15,02,29,9.30
2015,10,15,02,30,9.30
2015,10,15,02,31,9.30
2015,10,15,02,32,9.30
2015,10,15,02,33,9.30
2015,10,15,02,34,9.30
2015,10,15,02,35,9.30
2015,10,15,02,36,9.30
2015,10,15,02,37,9.30
2015,10,15,02,38,9.30
2015,10,15,02,39,9.30
2015,10,15,02,40,9.30
2015,10,15,02,41,9.30
2015,10,15,02,42,9.30
2015,10,15,02,43,9.30
2015,10,15,02,44,9.20
2015,10,15,02,45,9.20
2015,10,15,02,46,9.20
2015,10,15,02,47,9.20
2015,10,15,02,48,9.20
2015,10,15,02,49,9.30
2015,10,15,02,50,9.30
2015,10,15,02,51,9.30
2015,10,15,02,52,9.30
2015,10,15,02,53,9.30
2015,10,15,02,54,9.30
2015,10,15,02,55,9.30
2015,10,15,02,56,9.40
2015,10,15,02,57,9.40
2015,10,15,02,58,9.40
2015,10,15,02,59,9.40
2015,10,15,03,00,9.40
2015,10,15,03,01,9.50
2015,10,15,03,02,9.50
2015,10,15,03,03,9.50
2015,10,15,03,06,9.50
2015,10,15,03,07,9.50
2015,10,15,03,08,9.50
2015,10,15,03,09,9.50
2015,10,15,03,10,9.50
2015,10,15,03,11,9.50
2015,10,15,03,12,9.50
2015,10,15,03,13,9.50
2015,10,15,03,14,9.50
2015,10,15,03,15,9.60
2015,10,15,03,16,9.60
2015,10,15,03,17,9.60
2015,10,15,03,18,9.60
2015,10,15,03,19,9.60
2015,10,15,03,20,9.60
2015,10,15,03,21,9.60
2015,10,15,03,22,9.60
2015,10,15,03,23,9.60
2015,10,15,03,24,9.60
2015,10,15,03,25,9.60
2015,10,15,03,26,9.60
2015,10,15,03,27,9.60
2015,10,15,03,28,9.60
2015,10,15,03,29,9.60
2015,10,15,03,30,9.60
2015,10,15,03,31,9.60
2015,10,15,03,32,9.60
2015,10,15,03,33,9.60
2015,10,15,03,34,9.50
2015,10,15,03,35,9.50
2015,10,15,03,36,9.40
2015,10,15,03,37,9.40
2015,10,15,03,38,9.40
2015,10,15,03,39,9.40
2015,10,15,03,40,9.30
2015,10,15,03,41,9.30
2015,10,15,03,42,9.30
2015,10,15,03,43,9.30
2015,10,15,03,44,9.20
2015,10,15,03,45,9.20
2015,10,15,03,46,9.20
2015,10,15,03,47,9.20
2015,10,15,03,48,9.20
2015,10,15,03,49,9.20
2015,10,15,03,50,9.10
2015,10,15,03,51,9.10
2015,10,15,03,52,9.10
2015,10,15,03,53,9.10
2015,10,15,03,54,9.10
2015,10,15,03,55,9.10
2015,10,15,03,56,9.10
2015,10,15,03,57,9.00
2015,10,15,03,58,9.00
2015,10,15,03,59,9.00
2015,10,15,04,00,9.00
2015,10,15,04,01,8.90
2015,10,15,04,02,8.90
2015,10,15,04,03,8.90
2015,10,15,04,04,8.90
2015,10,15,04,05,8.90
2015,10,15,04,06,8.90
2015,10,15,04,07,8.80
2015,10,15,04,08,8.80
2015,10,15,04,09,8.80
2015,10,15,04,10,8.80
2015,10,15,04,11,8.80
2015,10,15,04,12,8.80
2015,10,15,04,13,8.80
2015,10,15,04,14,8.70
2015,10,15,04,15,8.70
2015,10,15,04,16,8.70
2015,10,15,04,17,8.70
2015,10,15,04,18,8.70
2015,10,15,04,19,8.70
2015,10,15,04,20,8.70
2015,10,15,04,21,8.70
2015,10,15,04,22,8.70
2015,10,15,04,23,8.70
2015,10,15,04,24,8.70
2015,10,15,04,25,8.70
2015,10,15,04,26,8.70
2015,10,15,04,27,8.70
2015,10,15,04,28,8.70
2015,10,15,04,29,8.70
2015,10,15,04,30,8.70
2015,10,15,04,31,8.70
2015,10,15,04,32,8.60
2015,10,15,04,33,8.60
2015,10,15,04,34,8.60
2015,10,15,04,35,8.60
2015,10,15,04,36,8.60
2015,10,15,04,37,8.60
2015,10,15,04,38,8.60
2015,10,15,04,39,8.60
2015,10,15,04,40,8.60
2015,10,15,04,41,8.60
2015,10,15,04,42,8.60
2015,10,15,04,43,8.60
2015,10,15,04,44,8.60
2015,10,15,04,45,8.60
2015,10,15,04,46,8.60
2015,10,15,04,47,8.60
2015,10,15,04,48,8.70
2015,10,15,04,49,8.70
2015,10,15,04,50,8.70
2015,10,15,04,51,8.70
2015,10,15,04,52,8.70
2015,10,15,04,53,8.70
2015,10,15,04,54,8.70
2015,10,15,04,55,8.70
2015,10,15,04,56,8.70
2015,10,15,04,57,8.60
2015,10,15,04,58,8.60
2015,10,15,04,59,8.60
2015,10,15,05,00,8.60
2015,10,15,05,01,8.60
2015,10,15,05,02,8.60
2015,10,15,05,03,8.60
2015,10,15,05,04,8.60
2015,10,15,05,05,8.60
2015,10,15,05,06,8.60
2015,10,15,05,07,8.60
2015,10,15,05,08,8.60
2015,10,15,05,09,8.60
2015,10,15,05,10,8.60
2015,10,15,05,11,8.60
2015,10,15,05,12,8.60
2015,10,15,05,13,8.50
2015,10,15,05,14,8.50
2015,10,15,05,15,8.50
2015,10,15,05,16,8.50
2015,10,15,05,17,8.40
2015,10,15,05,18,8.40
2015,10,15,05,19,8.40
2015,10,15,05,20,8.40
2015,10,15,05,21,8.40
2015,10,15,05,22,8.30
2015,10,15,05,23,8.30
2015,10,15,05,24,8.30
2015,10,15,05,25,8.30
2015,10,15,05,26,8.30
2015,10,15,05,27,8.30
2015,10,15,05,28,8.30
2015,10,15,05,29,8.30
2015,10,15,05,30,8.20
2015,10,15,05,31,8.20
2015,10,15,05,32,8.20
2015,10,15,05,33,8.20
2015,10,15,05,34,8.20
2015,10,15,05,35,8.20
2015,10,15,05,36,8.20
2015,10,15,05,37,8.10
2015,10,15,05,38,8.10
2015,10,15,05,39,8.10
2015,10,15,05,40,8.10
2015,10,15,05,41,8.10
2015,10,15,05,42,8.10
2015,10,15,05,43,8.10
2015,10,15,05,44,8.00
2015,10,15,05,45,8.00
2015,10,15,05,46,8.00
2015,10,15,05,47,8.00
2015,10,15,05,48,7.90
2015,10,15,05,49,7.90
2015,10,15,05,50,7.90
2015,10,15,05,51,7.90
2015,10,15,05,52,7.90
2015,10,15,05,53,7.90
2015,10,15,05,54,7.90
2015,10,15,05,55,7.90
2015,10,15,05,56,7.90
2015,10,15,05,57,7.90
2015,10,15,05,58,7.90
2015,10,15,05,59,7.90
2015,10,15,06,00,7.80
2015,10,15,06,01,7.80
2015,10,15,06,02,7.80
2015,10,15,06,03,7.80
2015,10,15,06,04,7.80
2015,10,15,06,05,7.80
2015,10,15,06,06,7.80
2015,10,15,06,07,7.80
2015,10,15,06,08,7.80
2015,10,15,06,09,7.80
2015,10,15,06,10,7.80
2015,10,15,06,11,7.80
2015,10,15,06,12,7.80
2015,10,15,06,13,7.80
2015,10,15,06,14,7.80
2015,10,15,06,15,7.80
2015,10,15,06,16,7.80
2015,10,15,06,17,7.80
2015,10,15,06,18,7.80
2015,10,15,06,19,7.80
2015,10,15,06,20,7.80
2015,10,15,06,21,7.80
2015,10,15,06,22,7.80
2015,10,15,06,23,7.80
2015,10,15,06,24,7.80
2015,10,15,06,25,7.80
2015,10,15,06,26,7.80
2015,10,15,06,27,7.80
2015,10,15,06,28,7.90
2015,10,15,06,29,7.90
2015,10,15,06,30,7.90
2015,10,15,06,31,7.90
2015,10,15,06,32,7.90
2015,10,15,06,33,7.90
2015,10,15,06,34,7.90
2015,10,15,06,35,7.90
2015,10,15,06,36,7.80
2015,10,15,06,37,7.80
2015,10,15,06,38,7.80
2015,10,15,06,39,7.80
2015,10,15,06,40,7.80
2015,10,15,06,41,7.80
2015,10,15,06,42,7.80
2015,10,15,06,43,7.80
2015,10,15,06,44,7.80
2015,10,15,06,45,7.80
2015,10,15,06,46,7.80
2015,10,15,06,47,7.80
2015,10,15,06,48,7.80
2015,10,15,06,49,7.80
2015,10,15,06,50,7.80
2015,10,15,06,51,7.80
2015,10,15,06,52,7.80
2015,10,15,06,53,7.80
2015,10,15,06,54,7.80
2015,10,15,06,55,7.70
2015,10,15,06,56,7.70
2015,10,15,06,57,7.70
2015,10,15,06,58,7.70
2015,10,15,06,59,7.70
2015,10,15,07,00,7.70
2015,10,15,07,01,7.70
2015,10,15,07,02,7.70
2015,10,15,07,03,7.70
2015,10,15,07,04,7.70
2015,10,15,07,05,7.70
2015,10,15,07,06,7.70
2015,10,15,07,07,7.70
2015,10,15,07,08,7.70
2015,10,15,07,09,7.70
2015,10,15,07,10,7.70
2015,10,15,07,11,7.70
2015,10,15,07,12,7.70
2015,10,15,07,13,7.70
2015,10,15,07,14,7.60
2015,10,15,07,15,7.60
2015,10,15,07,16,7.60
2015,10,15,07,17,7.60
2015,10,15,07,18,7.60
2015,10,15,07,19,7.60
2015,10,15,07,20,7.60
2015,10,15,07,21,7.70
2015,10,15,07,22,7.70
2015,10,15,07,23,7.70
2015,10,15,07,24,7.70
2015,10,15,07,25,7.70
2015,10,15,07,26,7.70
2015,10,15,07,27,7.70
2015,10,15,07,28,7.70
2015,10,15,07,29,7.80
2015,10,15,07,30,7.80
2015,10,15,07,31,7.80
2015,10,15,07,32,7.80
2015,10,15,07,33,7.80
2015,10,15,07,34,7.80
2015,10,15,07,35,7.80
2015,10,15,07,36,7.90
2015,10,15,07,37,7.90
2015,10,15,07,38,7.90
2015,10,15,07,39,7.90
2015,10,15,07,40,7.90
2015,10,15,07,41,7.90
2015,10,15,07,42,7.90
2015,10,15,07,43,7.90
2015,10,15,07,44,7.90
2015,10,15,07,45,7.90
2015,10,15,07,46,7.90
2015,10,15,07,47,7.90
2015,10,15,07,48,8.00
2015,10,15,07,49,8.00
2015,10,15,07,50,8.00
2015,10,15,07,51,8.00
2015,10,15,07,52,8.10
2015,10,15,07,53,8.10
2015,10,15,07,54,8.10
2015,10,15,07,55,8.10
2015,10,15,07,56,8.10
2015,10,15,07,57,8.10
2015,10,15,07,58,8.10
2015,10,15,07,59,8.10
2015,10,15,08,00,8.10
2015,10,15,08,01,8.10
2015,10,15,08,02,8.10
2015,10,15,08,03,8.10
2015,10,15,08,04,8.10
2015,10,15,08,05,8.10
2015,10,15,08,06,8.20
2015,10,15,08,07,8.20
2015,10,15,08,08,8.20
2015,10,15,08,09,8.20
2015,10,15,08,10,8.20
2015,10,15,08,11,8.20
2015,10,15,08,12,8.20
2015,10,15,08,13,8.20
2015,10,15,08,14,8.20
2015,10,15,08,15,8.10
2015,10,15,08,16,8.10
2015,10,15,08,17,8.10
2015,10,15,08,18,8.10
2015,10,15,08,19,8.10
2015,10,15,08,20,8.10
2015,10,15,08,21,8.10
2015,10,15,08,22,8.10
2015,10,15,08,23,8.10
2015,10,15,08,24,8.10
2015,10,15,08,25,8.20
2015,10,15,08,26,8.20
2015,10,15,08,27,8.20
2015,10,15,08,28,8.20
2015,10,15,08,29,8.20
2015,10,15,08,30,8.20
2015,10,15,08,31,8.20
2015,10,15,08,32,8.20
2015,10,15,08,33,8.20
2015,10,15,08,34,8.20
2015,10,15,08,35,8.20
2015,10,15,08,36,8.20
2015,10,15,08,37,8.30
2015,10,15,08,38,8.30
2015,10,15,08,39,8.30
2015,10,15,08,40,8.40
2015,10,15,08,41,8.40
2015,10,15,08,42,8.50
2015,10,15,08,43,8.50
2015,10,15,08,44,8.60
2015,10,15,08,45,8.60
2015,10,15,08,46,8.70
2015,10,15,08,47,8.70
2015,10,15,08,48,8.70
2015,10,15,08,49,8.70
2015,10,15,08,50,8.70
2015,10,15,08,51,8.70
2015,10,15,08,52,8.70
2015,10,15,08,53,8.70
2015,10,15,08,54,8.70
2015,10,15,08,55,8.70
2015,10,15,08,56,8.70
2015,10,15,08,57,8.80
2015,10,15,08,58,8.80
2015,10,15,08,59,8.80
2015,10,15,09,00,8.80
2015,10,15,09,01,8.80
2015,10,15,09,02,8.90
2015,10,15,09,03,8.90
2015,10,15,09,04,8.90
2015,10,15,09,05,8.90
2015,10,15,09,06,9.00
2015,10,15,09,07,9.00
2015,10,15,09,08,9.00
2015,10,15,09,09,9.10
2015,10,15,09,10,9.10
2015,10,15,09,11,9.10
2015,10,15,09,12,9.20
2015,10,15,09,13,9.20
2015,10,15,09,14,9.20
2015,10,15,09,15,9.30
2015,10,15,09,16,9.30
2015,10,15,09,17,9.40
2015,10,15,09,18,9.50
2015,10,15,09,19,9.50
2015,10,15,09,20,9.60
2015,10,15,09,21,9.60
2015,10,15,09,22,9.70
2015,10,15,09,23,9.70
2015,10,15,09,24,9.80
2015,10,15,09,25,9.80
2015,10,15,09,26,9.90
2015,10,15,09,27,9.90
2015,10,15,09,28,9.90
2015,10,15,09,29,9.90
2015,10,15,09,30,9.90
2015,10,15,09,31,9.90
2015,10,15,09,32,10.00
2015,10,15,09,33,10.00
2015,10,15,09,34,10.00
2015,10,15,09,35,10.00
2015,10,15,09,36,10.10
2015,10,15,09,37,10.10
2015,10,15,09,38,10.10
2015,10,15,09,39,10.20
2015,10,15,09,40,10.20
2015,10,15,09,41,10.30
2015,10,15,09,42,10.30
2015,10,15,09,43,10.40
2015,10,15,09,44,10.50
2015,10,15,09,45,10.50
2015,10,15,09,46,10.60
2015,10,15,09,47,10.60
2015,10,15,09,48,10.70
2015,10,15,09,49,10.70
2015,10,15,09,50,10.80
2015,10,15,09,51,10.80
2015,10,15,09,52,10.90
2015,10,15,09,53,10.90
2015,10,15,09,54,10.90
2015,10,15,09,55,11.00
2015,10,15,09,56,11.00
2015,10,15,09,57,11.10
2015,10,15,09,58,11.10
2015,10,15,09,59,11.20
2015,10,15,10,00,11.20
2015,10,15,10,01,11.20
2015,10,15,10,02,11.30
2015,10,15,10,03,11.30
2015,10,15,10,04,11.40
2015,10,15,10,05,11.50
2015,10,15,10,06,11.50
2015,10,15,10,07,11.60
2015,10,15,10,08,11.60
2015,10,15,10,09,11.70
2015,10,15,10,10,11.80
2015,10,15,10,11,11.80
2015,10,15,10,12,11.90
2015,10,15,10,13,11.90
2015,10,15,10,14,12.00
2015,10,15,10,15,12.10
2015,10,15,10,16,12.10
2015,10,15,10,17,12.20
2015,10,15,10,18,12.20
2015,10,15,10,19,12.30
2015,10,15,10,20,12.40
2015,10,15,10,21,12.40
2015,10,15,10,22,12.50
2015,10,15,10,23,12.50
2015,10,15,10,24,12.60
2015,10,15,10,25,12.70
2015,10,15,10,26,12.70
2015,10,15,10,27,12.80
2015,10,15,10,28,12.90
2015,10,15,10,29,12.90
2015,10,15,10,30,13.00
2015,10,15,10,31,13.10
2015,10,15,10,32,13.10
2015,10,15,10,33,13.10
2015,10,15,10,34,13.20
2015,10,15,10,35,13.20
2015,10,15,10,36,13.20
2015,10,15,10,37,13.20
2015,10,15,10,38,13.20
2015,10,15,10,39,13.20
2015,10,15,10,40,13.20
2015,10,15,10,41,13.20
2015,10,15,10,42,13.20
2015,10,15,10,43,13.20
2015,10,15,10,44,13.20
2015,10,15,10,45,13.30
2015,10,15,10,46,13.30
2015,10,15,10,47,13.30
2015,10,15,10,48,13.40
2015,10,15,10,49,13.40
2015,10,15,10,50,13.40
2015,10,15,10,51,13.50
2015,10,15,10,52,13.50
2015,10,15,10,53,13.60
2015,10,15,10,54,13.70
2015,10,15,10,55,13.70
2015,10,15,10,56,13.70
2015,10,15,10,57,13.80
2015,10,15,10,58,13.80
2015,10,15,10,59,13.90
2015,10,15,11,00,13.90
2015,10,15,11,01,13.90
2015,10,15,11,02,13.90
2015,10,15,11,03,14.00
2015,10,15,11,04,14.00
2015,10,15,11,05,14.10
2015,10,15,11,06,14.10
2015,10,15,11,07,14.10
2015,10,15,11,08,14.10
2015,10,15,11,09,14.20
2015,10,15,11,10,14.20
2015,10,15,11,11,14.20
2015,10,15,11,12,14.20
2015,10,15,11,13,14.30
2015,10,15,11,14,14.30
2015,10,15,11,15,14.40
2015,10,15,11,16,14.40
2015,10,15,11,17,14.50
2015,10,15,11,18,14.60
2015,10,15,11,19,14.70
2015,10,15,11,20,14.90
2015,10,15,11,21,15.00
2015,10,15,11,22,15.00
2015,10,15,11,23,15.00
2015,10,15,11,24,15.00
2015,10,15,11,25,15.00
2015,10,15,11,26,15.00
2015,10,15,11,27,15.00
2015,10,15,11,28,15.00
2015,10,15,11,29,15.00
2015,10,15,11,30,15.00
2015,10,15,11,31,15.10
2015,10,15,11,32,15.10
2015,10,15,11,33,15.10
2015,10,15,11,34,15.10
2015,10,15,11,35,15.20
2015,10,15,11,36,15.30
2015,10,15,11,37,15.30
2015,10,15,11,38,15.40
2015,10,15,11,39,15.50
2015,10,15,11,40,15.60
2015,10,15,11,41,15.70
2015,10,15,11,42,15.80
2015,10,15,11,43,15.80
2015,10,15,11,44,15.80
2015,10,15,11,45,16.00
2015,10,15,11,46,16.00
2015,10,15,11,47,15.90
2015,10,15,11,48,15.90
2015,10,15,11,49,16.00
2015,10,15,11,50,16.00
2015,10,15,11,51,16.00
2015,10,15,11,52,16.00
2015,10,15,11,53,15.90
2015,10,15,11,54,16.00
2015,10,15,11,55,16.00
2015,10,15,11,56,16.00
2015,10,15,11,57,16.00
2015,10,15,11,58,16.00
2015,10,15,11,59,16.00
2015,10,15,12,00,16.00
2015,10,15,12,01,16.10
2015,10,15,12,02,16.10
2015,10,15,12,03,16.20
2015,10,15,12,04,16.10
2015,10,15,12,05,16.10
2015,10,15,12,06,16.00
2015,10,15,12,07,16.00
2015,10,15,12,08,16.00
2015,10,15,12,09,16.00
2015,10,15,12,10,16.00
2015,10,15,12,11,16.00
2015,10,15,12,12,16.00
2015,10,15,12,13,16.00
2015,10,15,12,14,16.00
2015,10,15,12,15,16.10
2015,10,15,12,16,16.20
2015,10,15,12,17,16.20
2015,10,15,12,18,16.20
2015,10,15,12,19,16.40
2015,10,15,12,20,16.40
2015,10,15,12,21,16.50
2015,10,15,12,22,16.60
2015,10,15,12,23,16.60
2015,10,15,12,24,16.70
2015,10,15,12,25,16.70
2015,10,15,12,26,16.70
2015,10,15,12,27,16.70
2015,10,15,12,28,16.80
2015,10,15,12,29,16.80
2015,10,15,12,30,16.80
2015,10,15,12,31,16.80
2015,10,15,12,32,16.90
2015,10,15,12,33,16.90
2015,10,15,12,34,16.90
2015,10,15,12,35,16.90
2015,10,15,12,36,16.90
2015,10,15,12,37,16.90
2015,10,15,12,38,17.00
2015,10,15,12,39,17.10
2015,10,15,12,40,17.20
2015,10,15,12,41,17.10
2015,10,15,12,42,17.10
2015,10,15,12,43,17.00
2015,10,15,12,44,16.90
2015,10,15,12,45,16.90
2015,10,15,12,46,17.00
2015,10,15,12,47,17.00
2015,10,15,12,48,17.10
2015,10,15,12,49,17.10
2015,10,15,12,50,17.20
2015,10,15,12,51,17.20
2015,10,15,12,52,17.20
2015,10,15,12,53,17.30
2015,10,15,12,54,17.30
2015,10,15,12,55,17.40
2015,10,15,12,56,17.40
2015,10,15,12,57,17.40
2015,10,15,12,58,17.40
2015,10,15,12,59,17.40
2015,10,15,13,00,17.40
2015,10,15,13,01,17.40
2015,10,15,13,02,17.40
2015,10,15,13,03,17.40
2015,10,15,13,04,17.40
2015,10,15,13,05,17.50
2015,10,15,13,06,17.50
2015,10,15,13,07,17.50
2015,10,15,13,08,17.50
2015,10,15,13,09,17.50
2015,10,15,13,10,17.50
2015,10,15,13,11,17.50
2015,10,15,13,12,17.50
2015,10,15,13,13,17.50
2015,10,15,13,14,17.40
2015,10,15,13,15,17.50
2015,10,15,13,16,17.40
2015,10,15,13,17,17.30
2015,10,15,13,18,17.30
2015,10,15,13,19,17.30
2015,10,15,13,20,17.20
2015,10,15,13,21,17.20
2015,10,15,13,22,17.10
2015,10,15,13,23,17.10
2015,10,15,13,24,17.10
2015,10,15,13,25,17.10
2015,10,15,13,26,17.00
2015,10,15,13,27,17.00
2015,10,15,13,28,17.00
2015,10,15,13,29,17.00
2015,10,15,13,30,17.10
2015,10,15,13,31,17.10
2015,10,15,13,32,17.10
2015,10,15,13,33,17.10
2015,10,15,13,34,17.10
2015,10,15,13,35,17.20
2015,10,15,13,36,17.20
2015,10,15,13,37,17.20
2015,10,15,13,38,17.20
2015,10,15,13,39,17.20
2015,10,15,13,40,17.10
2015,10,15,13,41,17.10
2015,10,15,13,42,17.10
2015,10,15,13,43,17.10
2015,10,15,13,44,17.10
2015,10,15,13,45,17.00
2015,10,15,13,46,16.90
2015,10,15,13,47,16.90
2015,10,15,13,48,16.90
2015,10,15,13,49,16.90
2015,10,15,13,50,16.90
2015,10,15,13,51,16.90
2015,10,15,13,52,17.00
2015,10,15,13,53,17.00
2015,10,15,13,54,17.10
2015,10,15,13,55,17.10
2015,10,15,13,56,17.10
2015,10,15,13,57,17.10
2015,10,15,13,58,17.10
2015,10,15,13,59,17.10
2015,10,15,14,00,17.10
2015,10,15,14,01,17.20
2015,10,15,14,02,17.20
2015,10,15,14,03,17.20
2015,10,15,14,04,17.20
2015,10,15,14,05,17.20
2015,10,15,14,06,17.20
2015,10,15,14,07,17.20
2015,10,15,14,08,17.20
2015,10,15,14,09,17.20
2015,10,15,14,10,17.20
2015,10,15,14,11,17.30
2015,10,15,14,12,17.30
2015,10,15,14,13,17.30
2015,10,15,14,14,17.30
2015,10,15,14,15,17.30
2015,10,15,14,16,17.40
2015,10,15,14,17,17.40
2015,10,15,14,18,17.40
2015,10,15,14,19,17.40
2015,10,15,14,20,17.40
2015,10,15,14,21,17.50
2015,10,15,14,22,17.50
2015,10,15,14,23,17.60
2015,10,15,14,24,17.60
2015,10,15,14,25,17.70
2015,10,15,14,26,17.70
2015,10,15,14,27,17.70
2015,10,15,14,28,17.70
2015,10,15,14,29,17.70
2015,10,15,14,30,17.70
2015,10,15,14,31,17.70
2015,10,15,14,32,17.70
2015,10,15,14,33,17.70
2015,10,15,14,34,17.60
2015,10,15,14,35,17.60
2015,10,15,14,36,17.60
2015,10,15,14,37,17.60
2015,10,15,14,38,17.60
2015,10,15,14,39,17.60
2015,10,15,14,40,17.60
2015,10,15,14,41,17.60
2015,10,15,14,42,17.60
2015,10,15,14,43,17.60
2015,10,15,14,44,17.60
2015,10,15,14,45,17.60
2015,10,15,14,46,17.60
2015,10,15,14,47,17.60
2015,10,15,14,48,17.60
2015,10,15,14,49,17.70
2015,10,15,14,50,17.70
2015,10,15,14,51,17.70
2015,10,15,14,52,17.70
2015,10,15,14,53,17.70
2015,10,15,14,54,17.70
2015,10,15,14,55,17.70
2015,10,15,14,56,17.70
2015,10,15,14,57,17.70
2015,10,15,14,58,17.70
2015,10,15,14,59,17.70
2015,10,15,15,00,17.70
2015,10,15,15,01,17.70
2015,10,15,15,02,17.70
2015,10,15,15,03,17.70
2015,10,15,15,04,17.80
2015,10,15,15,05,17.70
2015,10,15,15,06,17.80
2015,10,15,15,07,17.70
2015,10,15,15,08,17.70
2015,10,15,15,09,17.70
2015,10,15,15,10,17.70
2015,10,15,15,11,17.70
2015,10,15,15,12,17.80
2015,10,15,15,13,17.70
2015,10,15,15,14,17.70
2015,10,15,15,15,17.70
2015,10,15,15,16,17.70
2015,10,15,15,17,17.70
2015,10,15,15,18,17.70
2015,10,15,15,19,17.70
2015,10,15,15,20,17.70
2015,10,15,15,21,17.70
2015,10,15,15,22,17.70
2015,10,15,15,23,17.70
2015,10,15,15,24,17.60
2015,10,15,15,25,17.60
2015,10,15,15,26,17.60
2015,10,15,15,27,17.50
2015,10,15,15,28,17.50
2015,10,15,15,29,17.40
2015,10,15,15,30,17.40
2015,10,15,15,31,17.30
2015,10,15,15,32,17.20
2015,10,15,15,33,17.10
2015,10,15,15,34,17.00
2015,10,15,15,35,16.90
2015,10,15,15,36,16.80
2015,10,15,15,37,16.70
2015,10,15,15,38,16.70
2015,10,15,15,39,16.60
2015,10,15,15,40,16.50
2015,10,15,15,41,16.50
2015,10,15,15,42,16.40
2015,10,15,15,43,16.30
2015,10,15,15,44,16.30
2015,10,15,15,45,16.30
2015,10,15,15,46,16.20
2015,10,15,15,47,16.20
2015,10,15,15,48,16.20
2015,10,15,15,49,16.10
2015,10,15,15,50,16.10
2015,10,15,15,51,16.00
2015,10,15,15,52,16.00
2015,10,15,15,53,15.90
2015,10,15,15,54,15.90
2015,10,15,15,55,15.90
2015,10,15,15,56,15.80
2015,10,15,15,57,15.80
2015,10,15,15,58,15.80
2015,10,15,15,59,15.80
2015,10,15,16,00,15.70
2015,10,15,16,01,15.80
2015,10,15,16,02,15.80
2015,10,15,16,03,15.80
2015,10,15,16,04,15.70
2015,10,15,16,05,15.70
2015,10,15,16,06,15.70
2015,10,15,16,07,15.60
2015,10,15,16,08,15.60
2015,10,15,16,09,15.60
2015,10,15,16,10,15.60
2015,10,15,16,11,15.60
2015,10,15,16,12,15.50
2015,10,15,16,13,15.40
2015,10,15,16,14,15.40
2015,10,15,16,15,15.40
2015,10,15,16,16,15.40
2015,10,15,16,17,15.40
2015,10,15,16,18,15.30
2015,10,15,16,19,15.30
2015,10,15,16,20,15.20
2015,10,15,16,21,15.20
2015,10,15,16,22,15.20
2015,10,15,16,23,15.20
2015,10,15,16,24,15.20
2015,10,15,16,25,15.20
2015,10,15,16,26,15.20
2015,10,15,16,27,15.20
2015,10,15,16,28,15.10
2015,10,15,16,29,15.10
2015,10,15,16,30,15.00
2015,10,15,16,31,15.00
2015,10,15,16,32,15.00
2015,10,15,16,33,15.00
2015,10,15,16,34,15.00
2015,10,15,16,35,15.00
2015,10,15,16,36,15.00
2015,10,15,16,37,15.00
2015,10,15,16,38,15.00
2015,10,15,16,39,15.00
2015,10,15,16,40,15.00
2015,10,15,16,41,15.00
2015,10,15,16,42,15.00
2015,10,15,16,43,14.90
2015,10,15,16,44,14.80
2015,10,15,16,45,14.80
2015,10,15,16,46,14.70
2015,10,15,16,47,14.70
2015,10,15,16,48,14.70
2015,10,15,16,49,14.70
2015,10,15,16,50,14.60
2015,10,15,16,51,14.60
2015,10,15,16,52,14.50
2015,10,15,16,53,14.50
2015,10,15,16,54,14.50
2015,10,15,16,55,14.50
2015,10,15,16,56,14.40
2015,10,15,16,57,14.40
2015,10,15,16,58,14.40
2015,10,15,16,59,14.30
2015,10,15,17,00,14.30
2015,10,15,17,01,14.30
2015,10,15,17,02,14.20
2015,10,15,17,03,14.20
2015,10,15,17,04,14.20
2015,10,15,17,05,14.20
2015,10,15,17,06,14.20
2015,10,15,17,07,14.20
2015,10,15,17,08,14.20
2015,10,15,17,09,14.10
2015,10,15,17,10,14.10
2015,10,15,17,11,14.10
2015,10,15,17,12,14.10
2015,10,15,17,13,14.00
2015,10,15,17,14,14.00
2015,10,15,17,15,14.00
2015,10,15,17,16,13.90
2015,10,15,17,17,13.90
2015,10,15,17,18,13.90
2015,10,15,17,19,13.90
2015,10,15,17,20,13.90
2015,10,15,17,21,13.80
2015,10,15,17,22,13.80
2015,10,15,17,23,13.70
2015,10,15,17,24,13.70
2015,10,15,17,25,13.70
2015,10,15,17,26,13.70
2015,10,15,17,27,13.70
2015,10,15,17,28,13.70
2015,10,15,17,29,13.70
2015,10,15,17,30,13.70
2015,10,15,17,31,13.70
2015,10,15,17,32,13.70
2015,10,15,17,33,13.70
2015,10,15,17,34,13.70
2015,10,15,17,35,13.60
2015,10,15,17,36,13.60
2015,10,15,17,37,13.60
2015,10,15,17,38,13.60
2015,10,15,17,39,13.50
2015,10,15,17,40,13.50
2015,10,15,17,41,13.40
2015,10,15,17,42,13.40